DLH35 EDDF-LEPA

Flight info

Callsign DLH35
Flight time 1h 51m
Altitude 33000
Route ANEKI2L/18 ANEKI Y163 HERBI Y164 MOPAN DCT LUTIX DCT BENOT DCT NEMOS DCT GEVEA DCT INCUS DCT BALSI DCT RETNO DCT TUPOX DCT MTG DCT DIVKO DCT VATIR DCT PIVUS N852 VERSO L129 LUNIK
Aircraft A321/M-SDE3FGHIRWY/LB1

Departure

Time 2026-05-04 16:45
Airport Frankfurt Main Airport (EDDF)

Arrival

Time 2026-05-04 18:37
Airport Palma de Mallorca Airport (LEPA)
Time Latitude Longitude Altitude Speed Heading
2026-05-04 16:26 50.03889 8.54882 351 ft 0 kts 159°
2026-05-04 16:40 50.03816 8.54909 353 ft 11 kts 187°
2026-05-04 16:40 50.03745 8.54679 351 ft 13 kts 251°
2026-05-04 16:41 50.03671 8.54368 345 ft 17 kts 249°
2026-05-04 16:41 50.03541 8.53825 338 ft 20 kts 250°
2026-05-04 16:42 50.03389 8.53191 332 ft 22 kts 250°
2026-05-04 16:43 50.03283 8.52746 331 ft 19 kts 250°
2026-05-04 16:43 50.03183 8.52594 334 ft 0 kts 179°
2026-05-04 16:43 50.03182 8.52594 334 ft 0 kts 179°
2026-05-04 16:44 50.00681 8.52629 513 ft 185 kts 181°
2026-05-04 16:45 49.98147 8.52777 2032 ft 183 kts 179°
2026-05-04 16:46 49.93809 8.53082 3228 ft 223 kts 179°
2026-05-04 16:46 49.90714 8.53291 4006 ft 223 kts 179°
2026-05-04 16:47 49.87628 8.53506 4030 ft 221 kts 179°
2026-05-04 16:47 49.84558 8.53719 4035 ft 220 kts 179°
2026-05-04 16:48 49.79944 8.54033 4589 ft 229 kts 178°
2026-05-04 16:48 49.78336 8.54137 5450 ft 232 kts 181°
2026-05-04 16:49 49.74874 8.53745 6817 ft 263 kts 186°
2026-05-04 16:49 49.71185 8.53235 8576 ft 269 kts 186°
2026-05-04 16:50 49.67425 8.52726 10189 ft 275 kts 187°
2026-05-04 16:50 49.63302 8.52168 10527 ft 319 kts 187°
2026-05-04 16:51 49.58648 8.51557 11180 ft 345 kts 186°
2026-05-04 16:51 49.56244 8.51245 11765 ft 349 kts 186°
2026-05-04 16:51 49.51358 8.50609 12990 ft 355 kts 186°
2026-05-04 16:52 49.46382 8.49955 14138 ft 362 kts 186°
2026-05-04 16:52 49.43860 8.49627 14666 ft 365 kts 186°
2026-05-04 16:53 49.38754 8.48966 15719 ft 371 kts 186°
2026-05-04 16:53 49.30935 8.47942 17288 ft 380 kts 186°
2026-05-04 16:54 49.28285 8.47597 17787 ft 383 kts 186°
2026-05-04 16:55 49.17543 8.46208 19588 ft 393 kts 186°
2026-05-04 16:55 49.12076 8.45494 20468 ft 396 kts 186°
2026-05-04 16:56 49.06574 8.44740 21281 ft 398 kts 189°
2026-05-04 16:56 48.98436 8.41981 22350 ft 401 kts 194°
2026-05-04 16:57 48.95708 8.41032 22698 ft 403 kts 194°
2026-05-04 16:57 48.90228 8.39134 23374 ft 405 kts 194°
2026-05-04 16:58 48.81939 8.36267 24232 ft 409 kts 194°
2026-05-04 16:58 48.79155 8.35304 24503 ft 411 kts 194°
2026-05-04 16:59 48.73571 8.33318 25029 ft 414 kts 195°
2026-05-04 17:00 48.62320 8.29157 26066 ft 418 kts 195°
2026-05-04 17:00 48.53791 8.26058 26843 ft 422 kts 195°
2026-05-04 17:01 48.48065 8.23987 27331 ft 424 kts 195°
2026-05-04 17:01 48.42421 8.21933 28737 ft 404 kts 195°
2026-05-04 17:02 48.37076 8.19982 29994 ft 390 kts 195°
2026-05-04 17:02 48.31825 8.18061 30585 ft 387 kts 195°
2026-05-04 17:03 48.29243 8.17123 30854 ft 386 kts 195°
2026-05-04 17:03 48.26600 8.16165 31158 ft 384 kts 195°
2026-05-04 17:03 48.21695 8.13287 31631 ft 382 kts 207°
2026-05-04 17:04 48.16929 8.09746 32009 ft 383 kts 207°
2026-05-04 17:04 48.12143 8.06210 32498 ft 380 kts 207°
2026-05-04 17:05 48.07421 8.02737 32985 ft 380 kts 207°
2026-05-04 17:05 48.02616 7.99191 32993 ft 390 kts 207°
2026-05-04 17:06 47.97681 7.95563 32994 ft 401 kts 207°
2026-05-04 17:06 47.95162 7.93717 32991 ft 406 kts 207°
2026-05-04 17:07 47.89221 7.89375 32994 ft 411 kts 206°
2026-05-04 17:07 47.82347 7.84360 32993 ft 412 kts 206°
2026-05-04 17:08 47.74633 7.78744 33004 ft 412 kts 206°
2026-05-04 17:09 47.69485 7.75013 33020 ft 412 kts 206°
2026-05-04 17:09 47.64364 7.71308 33028 ft 412 kts 206°
2026-05-04 17:10 47.51464 7.62014 33026 ft 413 kts 206°
2026-05-04 17:11 47.47133 7.58897 33027 ft 413 kts 206°
2026-05-04 17:12 47.39406 7.53350 33028 ft 414 kts 206°
2026-05-04 17:13 47.26434 7.44112 33048 ft 414 kts 206°
2026-05-04 17:14 47.16356 7.36049 33050 ft 413 kts 220°
2026-05-04 17:15 47.10752 7.26440 33042 ft 414 kts 230°
2026-05-04 17:16 47.03571 7.13252 33051 ft 414 kts 230°
2026-05-04 17:17 46.96373 7.00105 33064 ft 413 kts 230°
2026-05-04 17:18 46.88719 6.87671 33082 ft 411 kts 219°
2026-05-04 17:19 46.79855 6.77145 33076 ft 411 kts 218°
2026-05-04 17:20 46.70997 6.66624 33058 ft 411 kts 219°
2026-05-04 17:20 46.64369 6.58793 33062 ft 411 kts 219°
2026-05-04 17:21 46.55491 6.48340 33062 ft 411 kts 219°
2026-05-04 17:22 46.51053 6.43123 33079 ft 410 kts 218°
2026-05-04 17:23 46.42173 6.32738 33078 ft 410 kts 218°
2026-05-04 17:24 46.35512 6.24980 33072 ft 409 kts 218°
2026-05-04 17:25 46.26501 6.14943 33074 ft 409 kts 209°
2026-05-04 17:25 46.21132 6.12264 33071 ft 412 kts 191°
2026-05-04 17:26 46.15458 6.11024 33069 ft 413 kts 191°
2026-05-04 17:27 46.01301 6.07854 33175 ft 412 kts 191°
2026-05-04 17:27 45.95653 6.06624 33702 ft 409 kts 192°
2026-05-04 17:28 45.90043 6.05394 34045 ft 409 kts 192°
2026-05-04 17:29 45.73071 6.01653 34049 ft 411 kts 193°
2026-05-04 17:31 45.58947 5.98531 34032 ft 412 kts 193°
2026-05-04 17:32 45.44836 5.95336 34047 ft 411 kts 195°
2026-05-04 17:33 45.33707 5.91720 34051 ft 410 kts 197°
2026-05-04 17:34 45.22559 5.88196 34043 ft 411 kts 195°
2026-05-04 17:35 45.08582 5.83896 34060 ft 412 kts 196°
2026-05-04 17:36 45.02989 5.82162 34009 ft 411 kts 195°
2026-05-04 17:36 44.97390 5.80439 34017 ft 412 kts 195°
2026-05-04 17:37 44.91783 5.78707 34029 ft 413 kts 195°
2026-05-04 17:37 44.86166 5.76989 34031 ft 413 kts 195°
2026-05-04 17:38 44.80548 5.75274 34029 ft 413 kts 195°
2026-05-04 17:38 44.74922 5.73563 34033 ft 414 kts 195°
2026-05-04 17:39 44.66482 5.70977 34064 ft 414 kts 195°
2026-05-04 17:39 44.60854 5.69264 34064 ft 414 kts 195°
2026-05-04 17:40 44.55268 5.67571 34061 ft 413 kts 195°
2026-05-04 17:40 44.49645 5.65863 34066 ft 413 kts 195°
2026-05-04 17:41 44.44028 5.64161 34060 ft 413 kts 195°
2026-05-04 17:41 44.38415 5.62428 34058 ft 412 kts 199°
2026-05-04 17:42 44.33079 5.59649 34052 ft 409 kts 204°
2026-05-04 17:42 44.27775 5.56742 34043 ft 409 kts 204°
2026-05-04 17:43 44.22475 5.53839 34057 ft 409 kts 204°
2026-05-04 17:43 44.17178 5.50950 34059 ft 408 kts 204°
2026-05-04 17:44 44.11883 5.48070 34057 ft 408 kts 204°
2026-05-04 17:44 44.06591 5.45194 34041 ft 408 kts 204°
2026-05-04 17:45 44.01310 5.42319 34053 ft 408 kts 204°
2026-05-04 17:45 43.96030 5.39454 34057 ft 407 kts 204°
2026-05-04 17:46 43.90749 5.36600 34039 ft 407 kts 204°
2026-05-04 17:46 43.85471 5.33756 34031 ft 406 kts 204°
2026-05-04 17:47 43.80249 5.30939 34026 ft 405 kts 204°
2026-05-04 17:47 43.75002 5.28119 34010 ft 404 kts 204°
2026-05-04 17:48 43.69759 5.25304 33988 ft 404 kts 204°
2026-05-04 17:48 43.64521 5.22496 33994 ft 403 kts 204°
2026-05-04 17:49 43.59296 5.19688 34003 ft 403 kts 204°
2026-05-04 17:49 43.54070 5.16889 33999 ft 403 kts 204°
2026-05-04 17:50 43.48849 5.14110 33992 ft 402 kts 204°
2026-05-04 17:50 43.43633 5.11340 34003 ft 401 kts 204°
2026-05-04 17:51 43.38487 5.08413 33991 ft 398 kts 212°
2026-05-04 17:51 43.33900 5.04217 33996 ft 396 kts 216°
2026-05-04 17:52 43.29358 4.99937 33992 ft 396 kts 216°
2026-05-04 17:52 43.24824 4.95669 33999 ft 395 kts 216°
2026-05-04 17:53 43.20318 4.91439 34015 ft 395 kts 216°
2026-05-04 17:53 43.15775 4.87188 33999 ft 396 kts 216°
2026-05-04 17:54 43.11228 4.82943 33979 ft 396 kts 216°
2026-05-04 17:54 43.06683 4.78697 33992 ft 396 kts 216°
2026-05-04 17:55 43.01931 4.74883 33991 ft 397 kts 211°
2026-05-04 17:55 42.97111 4.71224 33980 ft 397 kts 211°
2026-05-04 17:56 42.92283 4.67578 33975 ft 397 kts 211°
2026-05-04 17:56 42.87453 4.63933 33974 ft 396 kts 211°
2026-05-04 17:57 42.82635 4.60290 33976 ft 396 kts 211°
2026-05-04 17:57 42.77814 4.56651 33992 ft 396 kts 211°
2026-05-04 17:58 42.72980 4.53021 33969 ft 397 kts 211°
2026-05-04 17:58 42.68138 4.49384 33965 ft 398 kts 211°
2026-05-04 17:59 42.63318 4.45766 33963 ft 398 kts 211°
2026-05-04 18:00 42.56026 4.40330 33954 ft 399 kts 211°
2026-05-04 18:00 42.51163 4.36700 33944 ft 399 kts 211°
2026-05-04 18:01 42.46305 4.33075 33963 ft 398 kts 211°
2026-05-04 18:01 42.41446 4.29464 33961 ft 398 kts 211°
2026-05-04 18:02 42.34974 4.24672 33956 ft 398 kts 211°
2026-05-04 18:02 42.30119 4.21075 33945 ft 398 kts 211°
2026-05-04 18:03 42.25269 4.17488 33969 ft 397 kts 211°
2026-05-04 18:03 42.20421 4.13910 33964 ft 397 kts 211°
2026-05-04 18:04 42.15571 4.10341 33959 ft 397 kts 211°
2026-05-04 18:05 42.08303 4.05002 33948 ft 397 kts 211°
2026-05-04 18:05 42.03460 4.01443 33947 ft 396 kts 211°
2026-05-04 18:06 41.96194 3.96133 33953 ft 396 kts 211°
2026-05-04 18:06 41.91150 3.93138 33932 ft 401 kts 198°
2026-05-04 18:07 41.85620 3.91784 33939 ft 404 kts 194°
2026-05-04 18:07 41.80122 3.90523 33944 ft 404 kts 194°
2026-05-04 18:08 41.74588 3.89255 33946 ft 403 kts 194°
2026-05-04 18:08 41.69056 3.87985 33939 ft 403 kts 195°
2026-05-04 18:09 41.57992 3.85440 33949 ft 403 kts 195°
2026-05-04 18:10 41.52464 3.84171 33950 ft 403 kts 195°
2026-05-04 18:10 41.46932 3.82909 33929 ft 403 kts 195°
2026-05-04 18:11 41.41399 3.81640 33937 ft 404 kts 195°
2026-05-04 18:11 41.35866 3.80368 33961 ft 404 kts 195°
2026-05-04 18:12 41.30322 3.79114 33957 ft 404 kts 195°
2026-05-04 18:12 41.24779 3.77865 33943 ft 404 kts 195°
2026-05-04 18:13 41.19242 3.76603 33946 ft 404 kts 195°
2026-05-04 18:13 41.13831 3.74977 33786 ft 398 kts 205°
2026-05-04 18:14 41.11266 3.73628 33517 ft 396 kts 206°
2026-05-04 18:14 41.08702 3.72279 32982 ft 397 kts 205°
2026-05-04 18:14 41.06120 3.70939 32183 ft 399 kts 205°
2026-05-04 18:15 41.00943 3.68283 30900 ft 396 kts 205°
2026-05-04 18:15 40.95853 3.65684 29859 ft 388 kts 205°
2026-05-04 18:15 40.93349 3.64404 29318 ft 383 kts 205°
2026-05-04 18:16 40.90878 3.63139 28814 ft 378 kts 205°
2026-05-04 18:16 40.88445 3.61892 28324 ft 373 kts 205°
2026-05-04 18:16 40.86043 3.60664 27841 ft 368 kts 205°
2026-05-04 18:17 40.81339 3.58250 26878 ft 358 kts 205°
2026-05-04 18:17 40.79029 3.57065 26410 ft 354 kts 205°
2026-05-04 18:17 40.74481 3.54742 25501 ft 347 kts 205°
2026-05-04 18:18 40.72242 3.53603 25068 ft 344 kts 205°
2026-05-04 18:18 40.70021 3.52474 24632 ft 340 kts 205°
2026-05-04 18:18 40.67820 3.51353 24212 ft 338 kts 206°
2026-05-04 18:18 40.65631 3.50237 23801 ft 336 kts 206°
2026-05-04 18:19 40.61285 3.48030 22938 ft 334 kts 205°
2026-05-04 18:19 40.59084 3.46963 22061 ft 342 kts 204°
2026-05-04 18:19 40.56834 3.45951 21307 ft 348 kts 202°
2026-05-04 18:20 40.54552 3.44972 20918 ft 342 kts 202°
2026-05-04 18:20 40.52307 3.44024 20534 ft 336 kts 202°
2026-05-04 18:20 40.50107 3.43091 20154 ft 330 kts 202°
2026-05-04 18:20 40.47935 3.42160 19779 ft 327 kts 202°
2026-05-04 18:21 40.45781 3.41224 19395 ft 325 kts 202°
2026-05-04 18:21 40.43638 3.40285 19000 ft 324 kts 202°
2026-05-04 18:21 40.41503 3.39344 18607 ft 323 kts 202°
2026-05-04 18:21 40.39373 3.38409 18216 ft 323 kts 202°
2026-05-04 18:22 40.37249 3.37481 17785 ft 321 kts 202°
2026-05-04 18:22 40.35133 3.36560 17388 ft 320 kts 202°
2026-05-04 18:22 40.33029 3.35641 16987 ft 317 kts 202°
2026-05-04 18:22 40.30941 3.34728 16592 ft 315 kts 201°
2026-05-04 18:23 40.28865 3.33823 16201 ft 313 kts 201°
2026-05-04 18:23 40.26803 3.32925 15799 ft 311 kts 201°
2026-05-04 18:23 40.24757 3.32035 15416 ft 309 kts 201°
2026-05-04 18:23 40.22688 3.31130 15022 ft 320 kts 201°
2026-05-04 18:24 40.20560 3.30195 14594 ft 324 kts 201°
2026-05-04 18:24 40.18417 3.29259 14198 ft 324 kts 201°
2026-05-04 18:24 40.16283 3.28330 13769 ft 323 kts 201°
2026-05-04 18:24 40.14157 3.27410 13343 ft 321 kts 201°
2026-05-04 18:25 40.12045 3.26502 12926 ft 319 kts 201°
2026-05-04 18:25 40.09947 3.25600 12522 ft 316 kts 201°
2026-05-04 18:25 40.07895 3.24716 12118 ft 314 kts 201°
2026-05-04 18:25 40.05828 3.23821 11719 ft 312 kts 201°
2026-05-04 18:26 40.03777 3.22933 11321 ft 310 kts 201°
2026-05-04 18:26 40.01767 3.21947 10716 ft 310 kts 210°
2026-05-04 18:26 39.99888 3.20614 10335 ft 303 kts 211°
2026-05-04 18:26 39.98055 3.19308 10213 ft 301 kts 211°
2026-05-04 18:27 39.96217 3.18000 10091 ft 301 kts 211°
2026-05-04 18:27 39.94404 3.16714 9942 ft 287 kts 211°
2026-05-04 18:27 39.92716 3.15524 9471 ft 269 kts 211°
2026-05-04 18:27 39.91075 3.14361 9043 ft 267 kts 211°
2026-05-04 18:28 39.89435 3.13198 8542 ft 269 kts 211°
2026-05-04 18:28 39.87785 3.12027 8038 ft 271 kts 211°
2026-05-04 18:28 39.86141 3.10864 7540 ft 266 kts 211°
2026-05-04 18:28 39.84530 3.09725 7009 ft 262 kts 211°
2026-05-04 18:29 39.82941 3.08601 6484 ft 258 kts 211°
2026-05-04 18:29 39.81368 3.07487 5926 ft 256 kts 212°
2026-05-04 18:29 39.79815 3.06388 5377 ft 253 kts 211°
2026-05-04 18:29 39.78267 3.05296 4843 ft 255 kts 211°
2026-05-04 18:30 39.75088 3.03053 3732 ft 264 kts 211°
2026-05-04 18:30 39.73465 3.01906 3189 ft 267 kts 210°
2026-05-04 18:30 39.71858 3.00775 2993 ft 256 kts 211°
2026-05-04 18:31 39.70340 2.99712 2986 ft 239 kts 210°
2026-05-04 18:31 39.68927 2.98724 2984 ft 222 kts 210°
2026-05-04 18:31 39.67618 2.97806 2998 ft 209 kts 211°
2026-05-04 18:31 39.66361 2.96921 2990 ft 203 kts 211°
2026-05-04 18:32 39.65152 2.95979 2979 ft 202 kts 220°
2026-05-04 18:32 39.64227 2.94622 2991 ft 201 kts 238°
2026-05-04 18:32 39.63529 2.93137 2931 ft 184 kts 238°
2026-05-04 18:32 39.62900 2.91794 2746 ft 165 kts 238°
2026-05-04 18:33 39.62329 2.90578 2569 ft 153 kts 238°
2026-05-04 18:33 39.61786 2.89424 2375 ft 148 kts 238°
2026-05-04 18:33 39.61256 2.88297 2178 ft 145 kts 237°
2026-05-04 18:33 39.60731 2.87181 1985 ft 144 kts 237°
2026-05-04 18:34 39.60210 2.86074 1799 ft 144 kts 237°
2026-05-04 18:34 39.59691 2.84972 1610 ft 143 kts 236°
2026-05-04 18:34 39.59170 2.83867 1414 ft 144 kts 236°
2026-05-04 18:34 39.58649 2.82761 1211 ft 144 kts 237°
2026-05-04 18:35 39.58125 2.81646 1025 ft 142 kts 237°
2026-05-04 18:35 39.57602 2.80538 838 ft 142 kts 237°
2026-05-04 18:35 39.57085 2.79444 661 ft 144 kts 237°
2026-05-04 18:35 39.56558 2.78326 429 ft 147 kts 238°
2026-05-04 18:36 39.56025 2.77190 268 ft 143 kts 237°
2026-05-04 18:36 39.55527 2.76128 70 ft 136 kts 237°
2026-05-04 18:36 39.55079 2.75183 38 ft 105 kts 238°
2026-05-04 18:36 39.54788 2.74570 36 ft 55 kts 238°
2026-05-04 18:37 39.54649 2.74276 38 ft 32 kts 238°
2026-05-04 18:37 39.54563 2.74061 38 ft 25 kts 257°
2026-05-04 18:37 39.54551 2.73863 38 ft 12 kts 270°
2026-05-04 18:37 39.54551 2.73823 38 ft 3 kts 269°
2026-05-04 18:38 39.54551 2.73811 38 ft 0 kts 269°
2026-05-04 18:39 39.54551 2.73798 38 ft 3 kts 269°
2026-05-04 18:39 39.54551 2.73755 38 ft 8 kts 273°
2026-05-04 18:39 39.54577 2.73660 38 ft 13 kts 308°
2026-05-04 18:40 39.54653 2.73653 37 ft 13 kts 52°
2026-05-04 18:40 39.54698 2.73757 38 ft 14 kts 58°
2026-05-04 18:40 39.54749 2.73865 38 ft 14 kts 58°
2026-05-04 18:40 39.54800 2.73966 38 ft 8 kts 57°
2026-05-04 18:41 39.54845 2.74000 38 ft 8 kts 353°
2026-05-04 18:41 39.54895 2.73963 38 ft 9 kts 328°
2026-05-04 18:41 39.54937 2.73912 38 ft 7 kts 275°
2026-05-04 18:41 39.54915 2.73847 38 ft 7 kts 249°
2026-05-04 18:42 39.54906 2.73816 37 ft 2 kts 249°
2026-05-04 18:42 39.54905 2.73812 38 ft 0 kts 249°